Date String (YYYY-MM-DD hh:mm:ss) UTC,Instrument flags,Ambient pressure (hPa),Sample flow (lpm),Bypass flow (lpm),Sample temperature (°C),Ambient temperature (°C),ASC tube jacket temperature (°C),LED temperature (°C),Box temperature (°C),Sample RH (%),Span deviation,Mass concentration (μg/m³),Mass concentration (μg/m³),Mass concentration (μg/m³)
DateTimeUTC,F1_M11,P_M11,Q1_M11,Q2_M11,T1_M11,T2_M11,T3_M11,T4_M11,T5_M11,U1_M11,ZSPAN_M11,X0_M11,X2_M11,X1_M11
2022-11-15 03:00:00,,0828.1,5.01,0.00,21.6,20.1,00.0,30.6,23.4,09.8,0002.7,0019.82,0007.64,0006.40
2022-11-15 03:01:00,,0828.0,5.00,0.00,21.6,20.0,00.0,30.6,23.4,09.9,0003.8,0020.66,0007.69,0006.36
2022-11-15 03:02:00,,0828.0,4.99,0.00,21.6,20.0,00.0,30.6,23.4,10.0,0004.2,0021.23,0007.67,0006.34
2022-11-15 03:03:00,,0828.1,5.00,0.00,21.6,20.0,00.0,30.6,23.4,10.0,0004.2,0022.50,0007.68,0006.32
2022-11-15 03:04:00,,0828.1,4.99,0.00,21.5,19.9,00.0,30.6,23.3,10.1,0004.4,0022.89,0007.68,0006.33
2022-11-15 03:05:00,,0828.1,5.02,0.00,21.5,19.9,00.0,30.6,23.3,10.2,0004.3,0023.67,0007.66,0006.33
2022-11-15 03:06:00,,0828.1,5.01,0.00,21.5,20.0,00.0,30.6,23.3,10.3,0002.0,0023.43,0007.64,0006.32
2022-11-15 03:07:00,,0828.1,4.99,0.00,21.6,20.8,00.0,30.5,23.5,10.8,0000.0,0023.35,0007.63,0006.29
2022-11-15 03:08:00,,0828.1,4.99,0.00,21.7,21.6,00.0,30.5,23.7,11.4,0000.6,0023.17,0007.49,0006.22
2022-11-15 03:09:00,,0828.1,5.01,0.00,21.8,21.4,00.0,30.5,23.7,11.8,0001.4,0020.62,0007.30,0006.11
2022-11-15 03:10:00,,0828.1,5.00,0.00,21.7,21.0,00.0,30.6,23.6,12.0,0001.5,0018.80,0007.13,0005.99
2022-11-15 03:11:00,,0828.1,5.00,0.00,21.7,20.7,00.0,30.6,23.5,12.0,0001.3,0018.60,0006.94,0005.88
2022-11-15 03:12:00,,0828.1,5.00,0.00,21.7,20.4,00.0,30.6,23.4,12.0,0000.5,0018.75,0006.71,0005.75
2022-11-15 03:13:00,,0828.1,5.00,0.00,21.7,20.3,00.0,30.6,23.4,12.0,0001.0,0018.75,0006.55,0005.63
2022-11-15 03:14:00,,0828.1,5.00,0.00,21.6,20.1,00.0,30.6,23.4,11.9,0000.0,0018.18,0006.39,0005.51
2022-11-15 03:15:00,,0828.2,5.00,0.00,21.6,20.1,00.0,30.6,23.4,11.9,0000.0,0017.76,0006.29,0005.40
2022-11-15 03:16:00,,0828.1,5.00,0.00,21.6,20.1,00.0,30.6,23.4,12.0,0000.0,0016.69,0006.16,0005.29
2022-11-15 03:17:00,,0828.2,5.00,0.00,21.6,20.1,00.0,30.6,23.4,12.0,0000.0,0016.14,0005.99,0005.17
2022-11-15 03:18:00,,0828.3,5.00,0.00,21.6,20.0,00.0,30.6,23.4,12.0,0000.0,0016.02,0005.80,0005.07
2022-11-15 03:19:00,,0828.2,5.00,0.00,21.6,20.0,00.0,30.6,23.4,12.0,0000.0,0015.75,0005.73,0005.01
2022-11-15 03:20:00,,0828.2,5.00,0.00,21.6,20.0,00.0,30.6,23.3,11.9,0000.0,0015.54,0005.74,0004.99
2022-11-15 03:21:00,,0828.2,5.00,0.00,21.6,19.9,00.0,30.6,23.3,11.9,0000.0,0015.97,0005.77,0004.98
2022-11-15 03:22:00,,0828.2,5.01,0.00,21.5,19.9,00.0,30.6,23.3,11.8,0000.0,0016.44,0005.80,0004.98
2022-11-15 03:23:00,,0828.3,5.00,0.00,21.5,19.9,00.0,30.6,23.3,11.8,0000.0,0016.35,0005.82,0004.98
2022-11-15 03:24:00,,0828.3,4.99,0.00,21.5,19.8,00.0,30.5,23.2,11.9,0000.0,0015.33,0005.81,0004.96
2022-11-15 03:25:00,,0828.3,5.00,0.00,21.5,20.1,00.0,30.5,23.3,11.9,0000.0,0014.40,0005.81,0004.95
2022-11-15 03:26:00,,0828.3,5.02,0.00,21.6,21.1,00.0,30.5,23.5,11.9,0000.0,0014.51,0005.74,0004.93
2022-11-15 03:27:00,,0828.3,4.99,0.00,21.7,21.7,00.0,30.5,23.7,11.9,0000.0,0014.24,0005.75,0004.94
2022-11-15 03:28:00,,0828.3,4.99,0.00,21.7,21.4,00.0,30.5,23.7,11.9,0000.0,0014.47,0005.77,0004.93
2022-11-15 03:29:00,,0828.4,5.01,0.00,21.7,21.1,00.0,30.6,23.6,11.9,0000.0,0014.54,0005.84,0004.94
2022-11-15 03:30:00,,0828.3,5.00,0.00,21.7,20.8,00.0,30.6,23.5,11.9,0000.0,0014.87,0005.89,0004.95
2022-11-15 03:31:00,,0828.4,5.00,0.00,21.7,20.5,00.0,30.6,23.4,11.9,0000.0,0015.23,0005.89,0004.96
2022-11-15 03:32:00,,0828.4,5.00,0.00,21.6,20.4,00.0,30.6,23.4,11.8,0000.0,0014.90,0005.86,0004.96
2022-11-15 03:33:00,,0828.4,4.99,0.00,21.6,20.3,00.0,30.6,23.4,11.8,0000.0,0013.83,0005.83,0004.96
2022-11-15 03:34:00,,0828.4,4.98,0.00,21.6,20.1,00.0,30.6,23.3,11.9,0000.0,0012.50,0005.75,0004.95
2022-11-15 03:35:00,,0828.4,5.00,0.00,21.6,20.0,00.0,30.6,23.3,11.9,0000.0,0012.46,0005.71,0004.95
2022-11-15 03:36:00,,0828.4,5.00,0.00,21.6,20.0,00.0,30.6,23.3,11.9,0000.0,0012.84,0005.70,0004.94
2022-11-15 03:37:00,,0828.4,5.00,0.00,21.5,20.0,00.0,30.6,23.3,11.9,0000.0,0012.10,0005.70,0004.95
2022-11-15 03:38:00,,0828.4,5.01,0.00,21.5,20.0,00.0,30.6,23.3,12.0,0000.0,0013.46,0005.70,0004.94
2022-11-15 03:39:00,,0828.4,5.01,0.00,21.5,20.0,00.0,30.6,23.3,12.0,0000.0,0014.05,0005.67,0004.93
2022-11-15 03:40:00,,0828.5,5.01,0.00,21.5,20.0,00.0,30.6,23.3,12.0,0000.0,0014.06,0005.63,0004.91
2022-11-15 03:41:00,,0828.5,5.00,0.00,21.5,20.1,00.0,30.6,23.3,11.9,0000.0,0013.90,0005.58,0004.91
2022-11-15 03:42:00,,0828.5,4.99,0.00,21.5,20.1,00.0,30.5,23.4,11.9,0000.0,0014.52,0005.56,0004.89
2022-11-15 03:43:00,,0828.5,4.99,0.00,21.5,20.1,00.0,30.5,23.4,11.9,0000.0,0015.00,0005.56,0004.90
2022-11-15 03:44:00,,0828.5,4.99,0.00,21.5,20.1,00.0,30.5,23.4,11.9,0000.0,0016.05,0005.61,0004.89
2022-11-15 03:45:00,,0828.5,5.00,0.00,21.6,20.1,00.0,30.5,23.4,11.9,0000.0,0016.87,0005.65,0004.89
2022-11-15 03:46:00,,0828.5,5.00,0.00,21.6,20.1,00.0,30.5,23.4,11.9,0000.0,0016.67,0005.68,0004.91
2022-11-15 03:47:00,,0828.8,5.00,0.00,21.6,20.1,00.0,30.5,23.4,11.9,0000.0,0016.35,0005.68,0004.92
2022-11-15 03:48:00,,0828.6,5.01,0.00,21.6,20.1,00.0,30.5,23.4,11.9,0000.0,0016.45,0005.72,0004.93
2022-11-15 03:49:00,,0829.0,5.00,0.00,21.5,20.1,00.0,30.5,23.4,12.0,0000.0,0015.31,0005.75,0004.96
2022-11-15 03:50:00,,0829.1,5.00,0.00,21.5,20.0,00.0,30.5,23.3,12.0,0000.0,0015.19,0005.78,0004.99
2022-11-15 03:51:00,,0828.8,5.00,0.00,21.5,20.0,00.0,30.5,23.3,12.0,0000.0,0015.56,0005.81,0005.03
2022-11-15 03:52:00,,0828.9,5.00,0.00,21.5,19.9,00.0,30.5,23.3,12.0,0000.0,0015.17,0005.82,0005.04
2022-11-15 03:53:00,,0829.1,5.01,0.00,21.5,20.5,00.0,30.4,23.4,12.1,0000.0,0014.13,0005.82,0005.04
2022-11-15 03:54:00,,0828.9,4.99,0.00,21.6,21.5,00.0,30.4,23.6,12.2,0000.0,0013.71,0005.80,0005.04
2022-11-15 03:55:00,,0829.1,4.99,0.00,21.7,21.8,00.0,30.4,23.8,12.1,0000.0,0013.43,0005.75,0005.03
2022-11-15 03:56:00,,0828.9,4.99,0.00,21.7,21.3,00.0,30.5,23.7,12.2,0000.0,0012.73,0005.73,0005.02
2022-11-15 03:57:00,,0829.1,5.00,0.00,21.7,20.9,00.0,30.5,23.6,12.3,0000.0,0012.60,0005.69,0004.98
2022-11-15 03:58:00,,0829.1,5.00,0.00,21.7,20.6,00.0,30.6,23.5,12.2,0000.0,0012.42,0005.68,0004.96
2022-11-15 03:59:00,,0829.1,5.01,0.00,21.7,20.4,00.0,30.6,23.5,12.2,0000.0,0012.10,0005.63,0004.94
